CAPE
622 597 606 671 698 707 766 810 806 931 1032 1034 1012 1083 1138 1117 895 909 997 807 754 898 492 696 637 410 368 377 537 536 473 798 630 437 448 584 653 588 628 736 743 565 62 45 41 74 15 22 30 3 11 0 0 0 0 0 0 0 0 0 0 0 0
514 583 642 673 701 736 702 744 769 867 938 1027 1059 1079 1101 1001 885 939 1074 970 736 575 595 742 583 554 467 384 534 375 456 841 707 582 488 620 605 613 759 726 557 337 175 58 59 16 4 8 30 23 0 0 0 0 0 2 13 0 0 0 0 0 0
729 718 676 669 654 671 587 601 650 863 879 868 956 876 832 751 880 1067 1269 1176 692 700 748 664 556 549 528 487 511 546 503 842 686 628 463 556 611 678 672 655 578 340 204 185 137 112 100 43 10 0 0 0 0 0 0 0 0 0 0 0 0 0 0
802 747 653 650 634 626 593 614 587 655 758 879 1187 1091 1000 902 1030 1218 1215 1068 788 659 540 506 476 598 547 671 556 717 678 711 638 585 642 412 569 674 770 574 498 385 363 346 105 99 56 40 0 0 0 0 0 0 0 0 0 0 0 0 0 0 0
786 708 560 598 595 608 599 566 552 679 676 858 1044 1205 1114 920 1163 1201 1077 929 608 465 477 424 450 614 615 678 586 711 789 669 668 752 881 607 767 833 758 516 425 396 477 305 310 62 189 12 0 0 0 0 0 0 0 0 0 0 0 0 0 0 0
772 673 553 458 455 633 663 569 690 755 779 893 998 941 1024 827 1138 977 1048 873 635 510 538 391 568 544 560 576 659 794 886 832 797 848 917 801 794 794 608 603 544 473 404 123 210 266 62 1 0 0 0 0 0 0 0 0 0 0 0 0 0 0 0
809 726 653 593 598 739 679 627 722 851 929 955 955 1284 934 893 1142 1165 1065 1019 941 954 625 520 506 488 617 633 655 1026 934 875 750 779 781 700 790 776 632 648 548 397 481 326 101 230 133 139 64 0 0 0 0 0 0 0 0 0 0 0 0 0 0
787 786 705 792 740 761 657 683 636 813 891 1045 997 842 1082 1150 1205 1256 1297 1046 1063 836 822 712 575 548 770 742 844 1064 1005 952 775 699 647 637 860 899 701 605 597 190 360 288 138 282 226 148 244 2 0 0 0 0 0 0 0 0 0 0 0 0 0
1028 916 862 862 898 924 823 819 872 912 1061 794 884 845 707 742 938 928 890 1023 1026 909 816 678 622 562 564 733 840 859 885 773 743 625 624 698 919 907 769 754 723 538 172 340 335 372 404 126 229 6 0 0 0 0 0 0 0 0 0 0 0 0 0
1044 1047 947 870 765 803 940 1072 1194 1046 814 718 657 757 734 698 774 855 899 933 922 894 829 868 695 569 597 735 596 581 722 751 634 553 580 666 829 903 844 979 815 611 379 190 511 611 437 318 252 292 0 0 0 0 0 0 0 0 0 0 0 0 0
1106 1228 1224 1079 889 860 1009 953 886 771 660 541 518 470 502 551 673 890 711 810 773 889 806 709 680 685 552 495 561 535 616 744 554 403 459 636 855 986 949 966 824 595 437 158 538 776 704 338 244 236 240 0 0 0 0 0 0 0 0 0 0 0 0
1016 1135 1070 1056 956 967 898 808 726 646 538 515 463 389 366 250 312 563 520 711 842 807 758 648 642 624 624 561 670 673 657 695 721 460 398 503 710 853 944 922 888 597 498 473 596 923 830 381 255 295 276 0 0 0 0 0 0 0 0 0 0 0 0
1038 928 942 964 853 817 764 672 633 611 580 415 149 107 46 74 99 459 462 501 628 768 666 562 652 653 580 557 591 650 604 627 542 430 355 431 530 694 885 937 888 746 646 538 858 1032 772 524 369 303 254 128 0 0 0 0 0 0 0 0 0 0 0
902 787 909 731 718 684 649 605 594 395 118 70 43 77 38 55 6 59 456 486 496 458 625 611 642 497 602 684 660 631 560 533 620 534 453 491 576 524 666 707 678 805 717 669 820 830 640 502 329 275 190 65 23 42 0 0 0 0 0 0 0 0 0
712 750 755 734 697 657 616 571 430 70 25 9 18 2 0 0 0 1 41 436 469 513 462 583 597 558 637 671 679 624 554 530 578 491 438 623 584 728 974 968 805 975 850 737 819 784 562 334 271 145 120 90 134 43 3 0 0 0 0 0 0 0 0
653 872 851 764 686 590 514 214 53 14 0 0 0 0 0 0 0 0 0 0 13 517 488 392 594 803 779 725 751 681 573 574 645 659 596 660 727 944 1131 1046 941 948 833 689 716 604 560 454 288 156 52 70 112 0 0 0 0 0 0 0 0 0 0
826 850 858 774 665 557 327 63 28 6 3 14 0 0 0 0 0 0 0 0 30 376 388 339 350 524 556 720 695 637 588 589 557 516 568 771 875 1020 1133 1052 970 990 845 661 522 389 433 485 314 146 79 93 74 0 0 0 0 0 0 0 0 0 0
825 800 786 712 610 358 57 26 0 1 0 0 0 0 0 0 0 0 0 2 30 52 74 82 183 414 476 525 720 839 754 631 432 548 715 836 1007 1077 973 1094 950 1004 894 759 550 514 468 305 203 120 39 40 38 0 0 0 0 0 0 0 0 0 0
763 751 679 621 497 229 50 8 0 0 0 0 0 0 0 0 0 0 0 0 0 0 0 0 0 0 281 378 291 374 643 498 41 104 498 833 1021 722 722 995 816 875 765 577 458 438 446 244 139 114 86 37 0 0 0 0 0 0 0 0 0 0 0
765 620 624 532 388 73 37 5 0 0 0 0 0 0 0 0 0 0 0 0 0 0 0 0 0 0 0 0 1 1 87 88 0 0 0 458 639 666 743 798 788 686 591 548 566 727 446 308 220 70 13 0 0 0 0 0 0 0 0 0 0 0 0
558 592 554 510 332 127 16 0 0 0 0 0 0 0 0 0 0 0 0 0 0 0 0 0 0 0 0 0 0 0 0 0 0 0 183 422 572 646 677 638 544 550 590 587 636 574 407 285 64 20 0 0 0 0 0 0 0 0 0 0 0 0 0
256 454 507 494 309 102 19 0 0 0 0 0 0 0 0 0 0 0 0 0 0 0 0 0 0 0 0 0 0 0 0 0 0 13 85 197 431 533 527 316 101 467 424 511 568 531 324 167 80 0 0 0 0 0 1 0 0 0 0 0 0 0 0
403 460 359 396 298 117 8 0 0 0 0 0 0 0 0 0 0 0 0 0 0 0 0 0 0 0 0 0 0 0 0 0 0 0 0 0 0 0 0 0 84 434 407 346 267 330 235 148 75 0 0 0 0 0 0 0 0 0 0 0 0 0 0
305 347 333 330 274 152 47 0 0 0 0 0 0 0 0 0 0 0 0 0 0 0 0 0 0 0 0 0 0 0 7 4 0 0 8 0 0 0 0 0 0 0 0 0 5 66 92 130 113 26 0 0 0 0 0 0 0 0 0 0 0 0 50
316 380 362 258 194 19 0 0 0 0 0 0 0 0 0 0 0 0 0 0 0 0 0 0 0 0 0 0 0 0 0 8 0 9 4 0 0 0 0 0 0 0 0 0 0 0 44 66 57 112 89 0 0 0 0 0 0 0 34 64 31 44 66
201 279 317 257 238 188 0 0 0 0 0 0 0 0 0 0 0 0 0 0 0 2 2 0 0 0 0 0 0 0 0 0 0 0 0 0 0 0 0 0 0 0 0 0 0 0 0 0 0 0 5 110 0 0 0 0 0 0 0 0 0 52 60
224 280 323 259 178 124 0 0 0 0 0 0 0 0 0 0 0 0 0 0 5 6 4 0 0 0 0 0 0 0 0 0 0 0 10 26 0 0 0 0 0 0 0 0 0 0 0 0 0 0 2 136 131 180 107 0 0 0 0 0 0 0 0
76 143 77 107 125 55 14 0 0 0 0 0 0 0 0 0 0 0 0 4 5 2 0 0 0 0 0 0 0 1 60 16 9 105 82 60 42 2 0 0 0 0 0 0 0 0 0 0 128 0 0 142 180 198 185 185 180 176 171 122 23 26 30
31 102 95 84 31 35 0 0 0 0 0 0 0 0 0 0 0 0 1 3 4 0 0 0 0 0 0 0 0 0 143 134 89 111 123 96 59 44 33 14 0 0 0 0 0 0 22 70 68 0 0 0 0 138 179 214 279 270 255 225 202 201 231
122 133 141 36 48 18 2 0 0 0 0 0 0 0 0 0 0 0 0 0 1 1 0 0 0 0 0 0 0 0 72 63 80 64 113 156 138 106 81 99 116 110 98 32 0 0 0 0 0 0 0 0 0 0 88 187 216 250 304 347 377 366 324
74 71 132 49 40 21 5 0 0 0 0 0 0 0 0 0 0 0 0 0 1 2 4 2 0 0 0 0 0 0 0 0 8 11 60 121 160 174 164 97 12 12 10 0 0 0 0 0 0 0 0 0 0 0 0 0 0 31 177 211 247 318 391
27 80 91 60 41 20 8 2 20 16 0 0 0 0 0 0 0 0 0 0 5 7 9 4 0 0 0 0 0 0 0 0 0 0 0 0 0 0 0 0 0 0 0 0 0 0 0 0 0 0 0 0 0 0 0 0 0 0 0 0 0 0 174
1 11 28 16 2 3 2 0 0 0 0 0 0 0 0 0 0 0 0 2 12 14 9 5 0 0 0 0 0 0 0 0 0 0 0 0 0 0 0 0 0 0 0 0 0 0 0 0 0 0 0 0 0 0 0 0 0 0 0 0 0 0 0
0 1 2 1 0 2 2 0 0 0 0 0 4 11 3 3 2 1 1 4 16 14 3 2 0 0 0 0 0 0 0 0 0 0 0 0 0 0 0 0 0 0 0 0 0 0 0 0 0 0 0 0 0 0 0 0 0 0 0 0 0 0 0
7 0 0 2 4 1 0 3 13 16 11 5 8 8 1 0 1 2 1 1 7 8 1 1 2 0 1 3 0 0 0 0 0 0 0 0 0 0 0 0 0 0 0 0 0 0 0 0 0 0 0 0 0 0 0 0 0 0 0 0 0 0 0
0 0 0 3 2 0 0 0 0 1 2 1 0 0 0 2 11 15 14 15 15 10 9 4 0 1 3 2 2 5 5 2 1 4 5 4 6 6 1 1 0 0 0 0 0 0 0 0 0 0 0 0 0 0 0 0 0 0 0 0 0 0 0
0 0 0 0 0 0 0 0 0 0 0 0 0 0 0 0 3 4 10 16 21 10 2 0 0 0 0 2 2 4 2 2 11 4 6 4 10 12 12 6 1 0 0 0 0 0 0 0 0 0 0 0 0 0 0 0 0 0 0 0 0 0 0
Wind_Speed
17 17 16 15 12 11 11 10 10 10 10 11 10 9 10 10 9 9 10 11 15 16 9 11 13 14 11 10 8 10 11 9 8 8 9 9 10 8 10 9 10 13 nan nan nan nan nan nan nan nan nan nan nan nan nan nan nan nan nan nan nan nan nan
17 16 16 15 14 12 13 11 11 10 10 10 9 9 9 8 8 8 9 10 19 12 7 10 12 17 12 8 10 12 8 7 8 8 10 9 11 10 12 11 13 15 14 nan nan nan nan nan nan nan nan nan nan nan nan nan nan nan nan nan nan nan nan
17 16 16 15 14 14 13 11 10 10 9 8 8 8 8 7 7 9 10 14 20 12 11 13 14 17 11 7 10 12 10 9 10 11 10 11 12 12 11 10 13 16 17 15 13 14 14 nan nan nan nan nan nan nan nan nan nan nan nan nan nan nan nan
19 18 17 15 15 14 13 9 8 8 9 8 10 9 8 8 9 10 11 17 20 15 17 16 14 15 11 8 11 13 13 11 12 12 13 13 13 13 11 11 13 15 13 12 12 nan nan nan nan nan nan nan nan nan nan nan nan nan nan nan nan nan nan
19 17 17 17 15 15 13 10 9 10 8 8 11 13 10 11 11 12 13 22 19 19 21 18 16 13 14 11 12 13 14 13 13 14 14 15 14 14 12 12 12 14 15 15 12 nan 12 nan nan nan nan nan nan nan nan nan nan nan nan nan nan nan nan
17 16 16 16 14 14 13 12 10 10 9 9 9 11 8 10 13 15 17 21 18 19 21 19 16 13 15 11 10 12 14 13 13 14 14 14 13 12 11 12 13 15 15 13 13 12 nan nan nan nan nan nan nan nan nan nan nan nan nan nan nan nan nan
15 14 14 15 14 13 13 10 9 10 10 9 10 11 10 11 13 15 18 20 19 21 22 20 17 14 15 13 11 12 13 13 14 13 13 13 11 10 12 13 13 14 13 13 11 12 11 12 nan nan nan nan nan nan nan nan nan nan nan nan nan nan nan
15 12 13 14 14 14 12 11 9 10 11 11 13 13 15 15 16 17 18 20 21 22 23 19 16 13 14 15 12 14 14 13 13 13 12 11 10 10 11 11 12 12 11 12 12 10 9 9 11 nan nan nan nan nan nan nan nan nan nan nan nan nan nan
14 12 12 13 14 14 13 12 12 12 13 15 16 17 17 17 18 18 18 19 20 21 22 21 20 17 16 14 13 13 12 11 12 11 10 10 9 8 9 10 12 11 10 10 10 9 7 7 9 nan nan nan nan nan nan nan nan nan nan nan nan nan nan
16 13 12 14 16 14 14 15 16 15 17 19 19 19 19 19 18 19 19 18 19 20 21 21 21 18 14 11 12 12 11 10 10 10 9 9 7 7 8 8 9 9 8 8 8 6 5 5 5 7 nan nan nan nan nan nan nan nan nan nan nan nan nan
16 14 12 14 15 16 17 19 18 19 19 20 21 20 20 19 18 18 18 17 17 18 19 19 21 18 12 11 12 10 9 9 10 9 8 8 7 8 8 8 7 6 7 8 6 5 4 3 4 5 6 nan nan nan nan nan nan nan nan nan nan nan nan
15 13 12 14 16 20 22 21 20 19 20 20 21 21 20 18 19 19 17 16 16 17 18 19 19 16 13 13 11 10 10 9 9 8 6 6 5 6 7 6 7 6 7 7 6 5 5 5 4 5 8 nan nan nan nan nan nan nan nan nan nan nan nan
14 15 14 15 17 21 23 23 22 20 19 19 19 19 nan nan nan 19 17 17 17 18 18 18 17 15 13 13 11 10 9 9 9 7 8 6 5 5 5 6 6 6 7 8 8 7 6 6 7 6 9 12 nan nan nan nan nan nan nan nan nan nan nan
15 16 16 17 18 20 22 24 22 20 19 nan nan nan nan nan nan nan 17 17 17 17 19 18 17 14 12 13 11 9 10 10 10 7 8 8 6 6 5 7 8 8 9 9 9 9 7 7 8 8 13 nan nan nan nan nan nan nan nan nan nan nan nan
14 15 17 18 19 20 23 24 24 nan nan nan nan nan nan nan nan nan nan 16 17 18 18 19 18 16 13 13 13 11 11 11 10 9 9 9 8 7 8 9 10 11 11 12 10 9 7 8 8 9 11 nan 6 nan nan nan nan nan nan nan nan nan nan
14 15 17 17 19 21 23 24 nan nan nan nan nan nan nan nan nan nan nan nan nan 17 17 17 18 17 16 14 13 11 11 11 10 10 9 9 9 9 11 10 11 11 12 12 11 8 9 9 9 10 nan nan 7 nan nan nan nan nan nan nan nan nan nan
16 15 16 16 19 20 22 nan nan nan nan nan nan nan nan nan nan nan nan nan nan 18 17 17 18 17 15 14 11 9 9 9 10 11 10 9 9 11 12 13 11 11 11 12 11 8 9 10 9 11 nan nan nan nan nan nan nan nan nan nan nan nan nan
18 17 18 20 22 21 nan nan nan nan nan nan nan nan nan nan nan nan nan nan nan nan nan nan 16 15 14 13 11 10 9 8 9 9 10 10 11 13 14 14 13 12 13 14 11 9 9 10 9 12 nan nan nan nan nan nan nan nan nan nan nan nan nan
20 20 21 24 25 23 nan nan nan nan nan nan nan nan nan nan nan nan nan nan nan nan nan nan nan nan 16 13 13 14 12 11 nan 10 11 12 14 14 15 16 15 15 15 15 13 12 12 10 10 11 nan nan nan nan nan nan nan nan nan nan nan nan nan
21 21 22 23 25 nan nan nan nan nan nan nan nan nan nan nan nan nan nan nan nan nan nan nan nan nan nan nan nan nan nan nan nan nan nan 16 15 15 15 16 17 16 16 17 17 15 14 15 12 nan nan nan nan nan nan nan nan nan nan nan nan nan nan
21 24 22 24 26 29 nan nan nan nan nan nan nan nan nan nan nan nan nan nan nan nan nan nan nan nan nan nan nan nan nan nan nan nan 18 20 19 16 16 17 17 16 18 20 19 15 15 16 nan nan nan nan nan nan nan nan nan nan nan nan nan nan nan
19 23 26 26 27 27 nan nan nan nan nan nan nan nan nan nan nan nan nan nan nan nan nan nan nan nan nan nan nan nan nan nan nan nan nan 24 21 20 19 19 19 19 21 25 23 20 20 19 nan nan nan nan nan nan nan nan nan nan nan nan nan nan nan
23 21 23 27 27 27 nan nan nan nan nan nan nan nan nan nan nan nan nan nan nan nan nan nan nan nan nan nan nan nan nan nan nan nan nan nan nan nan nan nan nan 26 28 28 27 29 29 27 nan nan nan nan nan nan nan nan nan nan nan nan nan nan nan
27 25 26 26 24 29 nan nan nan nan nan nan nan nan nan nan nan nan nan nan nan nan nan nan nan nan nan nan nan nan nan nan nan nan nan nan nan nan nan nan nan nan nan nan nan nan nan 31 30 nan nan nan nan nan nan nan nan nan nan nan nan nan nan
29 30 26 28 25 nan nan nan nan nan nan nan nan nan nan nan nan nan nan nan nan nan nan nan nan nan nan nan nan nan nan nan nan nan nan nan nan nan nan nan nan nan nan nan nan nan nan nan nan 32 nan nan nan nan nan nan nan nan nan nan nan nan nan
29 30 29 28 30 31 nan nan nan nan nan nan nan nan nan nan nan nan nan nan nan nan nan nan nan nan nan nan nan nan nan nan nan nan nan nan nan nan nan nan nan nan nan nan nan nan nan nan nan nan nan 32 nan nan nan nan nan nan nan nan nan nan nan
30 30 30 30 33 35 nan nan nan nan nan nan nan nan nan nan nan nan nan nan nan nan nan nan nan nan nan nan nan nan nan nan nan nan nan nan nan nan nan nan nan nan nan nan nan nan nan nan nan nan nan 31 32 32 35 nan nan nan nan nan nan nan nan
nan 34 nan 32 35 nan nan nan nan nan nan nan nan nan nan nan nan nan nan nan nan nan nan nan nan nan nan nan nan nan nan nan nan 35 nan nan nan nan nan nan nan nan nan nan nan nan nan nan 32 nan nan 33 35 36 39 39 38 37 37 36 nan nan nan
nan 38 nan nan nan nan nan nan nan nan nan nan nan nan nan nan nan nan nan nan nan nan nan nan nan nan nan nan nan nan 34 36 nan 38 39 nan nan nan nan nan nan nan nan nan nan nan nan nan nan nan nan nan nan 37 39 38 39 41 41 40 39 38 37
38 39 39 nan nan nan nan nan nan nan nan nan nan nan nan nan nan nan nan nan nan nan nan nan nan nan nan nan nan nan nan nan nan nan 40 40 39 38 nan nan 35 35 nan nan nan nan nan nan nan nan nan nan nan nan nan 36 36 40 41 40 40 40 39
nan nan 42 nan nan nan nan nan nan nan nan nan nan nan nan nan nan nan nan nan nan nan nan nan nan nan nan nan nan nan nan nan nan nan nan 41 40 41 40 nan nan nan nan nan nan nan nan nan nan nan nan nan nan nan nan nan nan nan 38 39 41 40 39
nan nan nan nan nan nan nan nan nan nan nan nan nan nan nan nan nan nan nan nan nan nan nan nan nan nan nan nan nan nan nan nan nan nan nan nan nan nan nan nan nan nan nan nan nan nan nan nan nan nan nan nan nan nan nan nan nan nan nan nan nan nan 39
nan nan nan nan nan nan nan nan nan nan nan nan nan nan nan nan nan nan nan nan nan nan nan nan nan nan nan nan nan nan nan nan nan nan nan nan nan nan nan nan nan nan nan nan nan nan nan nan nan nan nan nan nan nan nan nan nan nan nan nan nan nan nan
nan nan nan nan nan nan nan nan nan nan nan nan nan nan nan nan nan nan nan nan nan nan nan nan nan nan nan nan nan nan nan nan nan nan nan nan nan nan nan nan nan nan nan nan nan nan nan nan nan nan nan nan nan nan nan nan nan nan nan nan nan nan nan
nan nan nan nan nan nan nan nan nan nan nan nan nan nan nan nan nan nan nan nan nan nan nan nan nan nan nan nan nan nan nan nan nan nan nan nan nan nan nan nan nan nan nan nan nan nan nan nan nan nan nan nan nan nan nan nan nan nan nan nan nan nan nan
nan nan nan nan nan nan nan nan nan nan nan nan nan nan nan nan nan nan nan nan nan nan nan nan nan nan nan nan nan nan nan nan nan nan nan nan nan nan nan nan nan nan nan nan nan nan nan nan nan nan nan nan nan nan nan nan nan nan nan nan nan nan nan
nan nan nan nan nan nan nan nan nan nan nan nan nan nan nan nan nan nan nan nan nan nan nan nan nan nan nan nan nan nan nan nan nan nan nan nan nan nan nan nan nan nan nan nan nan nan nan nan nan nan nan nan nan nan nan nan nan nan nan nan nan nan nan
Wind_Direction
317 320 318 313 304 298 294 280 267 263 252 257 263 260 257 250 245 240 242 246 245 245 248 258 270 264 262 259 261 244 249 256 265 273 271 265 268 245 233 241 239 257 nan nan nan nan nan nan nan nan nan nan nan nan nan nan nan nan nan nan nan nan nan
313 313 309 308 306 298 290 277 269 263 256 252 259 258 251 247 240 243 244 246 253 269 251 251 258 268 274 280 269 262 271 265 263 264 270 276 264 265 255 243 247 254 252 nan nan nan nan nan nan nan nan nan nan nan nan nan nan nan nan nan nan nan nan
308 307 308 308 303 300 293 285 270 265 262 252 249 250 250 247 246 246 248 252 265 277 259 252 246 257 259 268 276 281 277 274 265 281 283 276 267 265 259 266 253 250 249 247 248 254 244 nan nan nan nan nan nan nan nan nan nan nan nan nan nan nan nan
313 311 311 309 303 301 295 280 264 257 244 241 236 241 247 247 246 249 252 251 253 251 258 262 258 265 274 276 277 277 278 282 282 278 274 270 269 267 256 261 261 264 264 262 272 nan nan nan nan nan nan nan nan nan nan nan nan nan nan nan nan nan nan
315 312 316 317 314 309 298 279 252 250 240 227 230 237 245 238 240 249 246 249 259 258 257 255 255 261 263 255 266 259 264 268 267 271 273 276 271 265 257 247 242 239 245 262 266 nan 263 nan nan nan nan nan nan nan nan nan nan nan nan nan nan nan nan
315 316 315 310 307 301 288 269 258 256 245 240 244 256 244 239 234 248 247 253 260 265 271 272 275 279 267 259 263 260 267 277 277 277 278 279 277 272 263 239 237 239 254 255 253 255 nan nan nan nan nan nan nan nan nan nan nan nan nan nan nan nan nan
315 318 312 307 301 293 286 278 269 264 259 255 266 275 276 262 249 247 247 251 254 257 263 265 276 279 277 277 270 261 269 271 271 276 277 271 266 258 253 249 243 250 250 249 251 257 263 264 nan nan nan nan nan nan nan nan nan nan nan nan nan nan nan
316 317 311 305 298 294 288 280 270 267 265 270 276 271 269 264 255 250 248 248 246 249 259 267 270 268 274 275 267 267 266 267 266 265 266 272 269 261 250 251 250 248 252 252 260 260 260 267 267 nan nan nan nan nan nan nan nan nan nan nan nan nan nan
313 313 307 301 298 297 293 286 280 278 276 277 274 271 265 260 256 254 251 250 253 254 258 265 271 272 268 272 274 273 272 258 266 257 258 262 263 264 260 250 252 256 257 259 256 256 257 259 250 nan nan nan nan nan nan nan nan nan nan nan nan nan nan
313 313 309 306 303 297 290 283 279 279 276 273 268 262 261 256 255 256 253 253 252 259 261 265 269 271 276 279 272 272 265 260 267 273 271 271 266 257 250 257 267 264 258 247 241 240 237 233 239 238 nan nan nan nan nan nan nan nan nan nan nan nan nan
311 308 300 301 295 286 275 267 266 267 267 264 259 255 254 254 251 254 257 260 262 263 268 269 270 273 274 260 255 266 263 273 271 260 260 253 254 246 242 240 245 255 245 253 254 228 222 213 236 232 237 nan nan nan nan nan nan nan nan nan nan nan nan
307 300 294 287 282 276 271 267 264 263 259 257 257 255 254 255 254 265 264 265 269 271 272 275 278 280 274 267 267 267 270 276 274 263 245 246 221 228 234 243 229 227 245 255 242 235 231 227 240 232 230 nan nan nan nan nan nan nan nan nan nan nan nan
303 301 289 282 277 276 273 270 268 264 264 260 260 262 nan nan nan 271 272 270 269 271 275 274 275 274 272 274 280 277 276 271 265 266 269 253 238 225 231 242 244 232 246 249 238 249 244 231 228 220 226 241 nan nan nan nan nan nan nan nan nan nan nan
298 294 289 287 282 278 275 275 274 269 264 nan nan nan nan nan nan nan 274 274 270 267 274 275 272 265 258 267 272 276 270 265 263 253 259 260 242 250 250 246 248 249 257 261 254 245 250 231 227 216 221 nan nan nan nan nan nan nan nan nan nan nan nan
288 291 292 292 286 283 283 282 278 nan nan nan nan nan nan nan nan nan nan 274 269 268 263 267 269 267 264 264 264 261 268 265 264 256 250 257 260 262 258 250 248 254 258 260 253 254 250 244 235 230 223 nan 212 nan nan nan nan nan nan nan nan nan nan
280 285 290 288 289 288 287 284 nan nan nan nan nan nan nan nan nan nan nan nan nan 265 260 256 259 265 266 267 267 264 267 271 271 268 263 257 264 262 261 256 253 251 244 245 247 244 239 235 237 243 nan nan 245 nan nan nan nan nan nan nan nan nan nan
266 270 273 275 284 285 284 nan nan nan nan nan nan nan nan nan nan nan nan nan nan 261 257 254 258 265 267 268 266 265 263 267 272 275 279 277 274 268 266 260 262 254 244 248 245 242 230 235 240 247 nan nan nan nan nan nan nan nan nan nan nan nan nan
266 266 266 267 274 274 nan nan nan nan nan nan nan nan nan nan nan nan nan nan nan nan nan nan 255 256 258 257 260 262 265 266 268 273 278 271 272 268 268 265 262 255 248 250 250 247 232 239 245 253 nan nan nan nan nan nan nan nan nan nan nan nan nan
274 273 274 273 274 269 nan nan nan nan nan nan nan nan nan nan nan nan nan nan nan nan nan nan nan nan 241 250 253 257 270 277 nan 279 269 265 268 267 269 266 260 256 254 257 258 245 238 242 245 250 nan nan nan nan nan nan nan nan nan nan nan nan nan
277 277 277 276 270 nan nan nan nan nan nan nan nan nan nan nan nan nan nan nan nan nan nan nan nan nan nan nan nan nan nan nan nan nan nan 274 265 262 267 266 262 263 265 262 256 253 248 240 243 nan nan nan nan nan nan nan nan nan nan nan nan nan nan
269 279 280 276 268 262 nan nan nan nan nan nan nan nan nan nan nan nan nan nan nan nan nan nan nan nan nan nan nan nan nan nan nan nan 271 261 263 262 257 256 257 257 260 257 259 257 254 253 nan nan nan nan nan nan nan nan nan nan nan nan nan nan nan
253 270 280 275 270 261 nan nan nan nan nan nan nan nan nan nan nan nan nan nan nan nan nan nan nan nan nan nan nan nan nan nan nan nan nan 264 267 263 258 256 255 251 250 257 268 270 266 268 nan nan nan nan nan nan nan nan nan nan nan nan nan nan nan
269 249 256 266 270 260 nan nan nan nan nan nan nan nan nan nan nan nan nan nan nan nan nan nan nan nan nan nan nan nan nan nan nan nan nan nan nan nan nan nan nan 265 264 269 272 271 270 268 nan nan nan nan nan nan nan nan nan nan nan nan nan nan nan
277 266 252 245 257 264 nan nan nan nan nan nan nan nan nan nan nan nan nan nan nan nan nan nan nan nan nan nan nan nan nan nan nan nan nan nan nan nan nan nan nan nan nan nan nan nan nan 274 272 nan nan nan nan nan nan nan nan nan nan nan nan nan nan
278 278 270 264 250 nan nan nan nan nan nan nan nan nan nan nan nan nan nan nan nan nan nan nan nan nan nan nan nan nan nan nan nan nan nan nan nan nan nan nan nan nan nan nan nan nan nan nan nan 275 nan nan nan nan nan nan nan nan nan nan nan nan nan
271 268 267 258 252 258 nan nan nan nan nan nan nan nan nan nan nan nan nan nan nan nan nan nan nan nan nan nan nan nan nan nan nan nan nan nan nan nan nan nan nan nan nan nan nan nan nan nan nan nan nan 268 nan nan nan nan nan nan nan nan nan nan nan
273 268 266 260 252 254 nan nan nan nan nan nan nan nan nan nan nan nan nan nan nan nan nan nan nan nan nan nan nan nan nan nan nan nan nan nan nan nan nan nan nan nan nan nan nan nan nan nan nan nan nan 262 265 265 263 nan nan nan nan nan nan nan nan
nan 263 nan 258 255 nan nan nan nan nan nan nan nan nan nan nan nan nan nan nan nan nan nan nan nan nan nan nan nan nan nan nan nan 254 nan nan nan nan nan nan nan nan nan nan nan nan nan nan 258 nan nan 259 259 261 265 264 264 267 268 269 nan nan nan
nan 256 nan nan nan nan nan nan nan nan nan nan nan nan nan nan nan nan nan nan nan nan nan nan nan nan nan nan nan nan 253 256 nan 253 250 nan nan nan nan nan nan nan nan nan nan nan nan nan nan nan nan nan nan 261 263 266 264 266 268 269 270 271 273
251 255 258 nan nan nan nan nan nan nan nan nan nan nan nan nan nan nan nan nan nan nan nan nan nan nan nan nan nan nan nan nan nan nan 249 250 251 250 nan nan 252 253 nan nan nan nan nan nan nan nan nan nan nan nan nan 261 260 261 259 260 262 262 261
nan nan 252 nan nan nan nan nan nan nan nan nan nan nan nan nan nan nan nan nan nan nan nan nan nan nan nan nan nan nan nan nan nan nan nan 250 251 252 250 nan nan nan nan nan nan nan nan nan nan nan nan nan nan nan nan nan nan nan 263 266 270 267 269
nan nan nan nan nan nan nan nan nan nan nan nan nan nan nan nan nan nan nan nan nan nan nan nan nan nan nan nan nan nan nan nan nan nan nan nan nan nan nan nan nan nan nan nan nan nan nan nan nan nan nan nan nan nan nan nan nan nan nan nan nan nan 266
nan nan nan nan nan nan nan nan nan nan nan nan nan nan nan nan nan nan nan nan nan nan nan nan nan nan nan nan nan nan nan nan nan nan nan nan nan nan nan nan nan nan nan nan nan nan nan nan nan nan nan nan nan nan nan nan nan nan nan nan nan nan nan
nan nan nan nan nan nan nan nan nan nan nan nan nan nan nan nan nan nan nan nan nan nan nan nan nan nan nan nan nan nan nan nan nan nan nan nan nan nan nan nan nan nan nan nan nan nan nan nan nan nan nan nan nan nan nan nan nan nan nan nan nan nan nan
nan nan nan nan nan nan nan nan nan nan nan nan nan nan nan nan nan nan nan nan nan nan nan nan nan nan nan nan nan nan nan nan nan nan nan nan nan nan nan nan nan nan nan nan nan nan nan nan nan nan nan nan nan nan nan nan nan nan nan nan nan nan nan
nan nan nan nan nan nan nan nan nan nan nan nan nan nan nan nan nan nan nan nan nan nan nan nan nan nan nan nan nan nan nan nan nan nan nan nan nan nan nan nan nan nan nan nan nan nan nan nan nan nan nan nan nan nan nan nan nan nan nan nan nan nan nan
nan nan nan nan nan nan nan nan nan nan nan nan nan nan nan nan nan nan nan nan nan nan nan nan nan nan nan nan nan nan nan nan nan nan nan nan nan nan nan nan nan nan nan nan nan nan nan nan nan nan nan nan nan nan nan nan nan nan nan nan nan nan nan